This is the latest recevied weather packets stored in our database for station/object KF4ERV-4. If no packets are shown the sender has not sent any weather packets the latest 10 day(s).
| Time | Temp. | Humidity | Pressure | Rain* | Wind** | Luminosity | Snow |
|---|---|---|---|---|---|---|---|
| 1777556037 | 9.44° C | 73% | 1018.3 hPa | 0 mm | - | - | - |
| 1777555786 | 9.44° C | 73% | 1018.3 hPa | 0 mm | - | - | - |
| 1777555747 | 9.44° C | 71% | 1018.1 hPa | 0 mm | - | - | - |
| 1777555479 | 9.44° C | 71% | 1018.1 hPa | 0 mm | - | - | - |
| 1777555457 | 8.89° C | 72% | 1018 hPa | 0 mm | - | - | - |
| 1777555182 | 8.89° C | 72% | 1018 hPa | 0 mm | - | - | - |
| 1777554878 | 8.89° C | 72% | 1018.3 hPa | 0 mm | - | - | - |
| 1777554577 | 8.89° C | 69% | 1018.5 hPa | 0 mm | - | - | - |
| 1777554280 | 8.89° C | 68% | 1018 hPa | 0 mm | - | - | - |
| 1777553983 | 8.89° C | 66% | 1018 hPa | 0 mm | - | - | - |
| 1777553717 | 8.33° C | 67% | 1018 hPa | 0 mm | - | - | - |
| 1777553685 | 8.33° C | 67% | 1018 hPa | 0 mm | - | - | - |
| 1777553428 | 8.33° C | 66% | 1018 hPa | 0 mm | - | - | - |
| 1777553377 | 8.33° C | 66% | 1018 hPa | 0 mm | - | - | - |
| 1777553137 | 8.33° C | 62% | 1018 hPa | 0 mm | - | - | - |
| 1777553080 | 8.33° C | 62% | 1018 hPa | 0 mm | - | - | - |
| 1777552847 | 8.33° C | 59% | 1018 hPa | 0 mm | - | - | - |
| 1777552784 | 8.33° C | 59% | 1018 hPa | 0 mm | - | - | - |
| 1777552557 | 8.33° C | 58% | 1018 hPa | 0 mm | - | - | - |
| 1777552486 | 8.33° C | 58% | 1018 hPa | 0 mm | - | - | - |
| 1777552267 | 8.33° C | 57% | 1018 hPa | 0 mm | - | - | - |
| 1777552178 | 8.33° C | 57% | 1018 hPa | 0 mm | - | - | - |
| 1777551977 | 8.33° C | 55% | 1018 hPa | 0 mm | - | - | - |
| 1777551881 | 8.33° C | 55% | 1018 hPa | 0 mm | - | - | - |
| 1777551688 | 8.33° C | 53% | 1018 hPa | 0 mm | - | - | - |
* Rain latest hour (hover to see other rain measurements)
** Current wind speed in m/s (hover to see current wind gust speed)